Location: Grand Mazuras
(45.9128°N, 1.7636°E)
Time: 03:59:58
(UTC+00:00)

Resurs 1-3 - Pass Details

Date: 18 April 2021
Orbit: 629 x 632 km, 97.9° (Epoch: 10 May)

Event Time Altitude Azimuth Distance (km) Brightness Sun altitude
Exits shadow 19:23:13 - 139° (SE) 2,300 5.9 -7.2°
Reaches altitude 10° 19:23:58 10° 135° (SE) 2,010 5.6 -7.3°
Maximum altitude 19:27:59 36° 69° (ENE) 999 4.3 -8.0°
Drops below altitude 10° 19:32:01 10° 3° (N) 2,023 6.5 -8.6°
Sets 19:34:20 0° 355° (N) 2,935 7.5 -9.0°
